Showing default

CENTISPACE-1 S16, 62585

Orbit data source: Space-Track

CENTISPACE-1 S16, 62585 is a payload satellite owned by Centispace (CN) in LEO that was launched on Mon, 13 Jan 2025 UTC via a JIELONG-3 launch vehicle from the Yellow Sea Launch Area, China (YSLA). Payload-class satellites include a variety of spacecraft equipped with specific instruments for various scientific and technological missions. These include communications satellites like Starlink; space stations such as the ISS; scientific satellites like the Hubble; Earth observation satellites from companies like Planet Labs, Umbra, and HawkEye 360; GPS; miniature CubeSats for education and research; and military/defense satellites.

Loading next visibility...
Identifier
62585, 2025-007L
Orbit
LEO
Country
Flag of CNCN / PRC
Related business
Manufacturer
HITSAT
Mission
Operational Commercial Nav/Com
Bus & Motor
WK01H, Unknown motor
Mass
140 kg wet, 140 kg dry
Launch date (UTC)
2025-01-13 (8 months ago)
Launch vehicle
JIELONG-3
Launch site
Yellow Sea Launch Area, China (YSLA)
Object type
Payload
Rocket body
Debris
Shape & HBR
Box + 2 Pan, 1.0 m
Radar Cross Section
0.833 m², Large (>1 m²)

Expand to show TLE details & history
Last TLE update: 5 hours ago

TLE from 5 hours ago
0 CENTISPACE-1 S16
1 62585U 25007L   25261.02825773  .00000572  00000-0  18777-3 0  9997
2 62585  54.9804 205.3498 0009398 299.7283  60.2770 14.50661986 36454
Epoch: 2025-09-18T00:40Z
TLE epoch observation values (Epoch: 2025-09-18T00:40:41.467Z)
Latitude
-0.00001°
Longitude
-162.01873°
Altitude
721.238 km
Speed
7.498 km/s
True Right ascension
13h 41m 23s
True Declination
0° 00' 00"
Sunlit
Object was in daylight at epoch
Visualization orbit readout
Latitude
Unknown
Longitude
Unknown
Altitude
Unknown
Speed
Unknown
Apparent Right ascension
Unknown
Apparent Declination
Unknown
Sunlit
N/A
Visualization observer readout
Local Sidereal Time
22:16:02
Azimuth
Unknown
Elevation
Unknown
Doppler factor
Unknown
Orbital elements
Apogee altitude
730.128 km
Perigee altitude
716.78 km
Semi-major axis
7,101.591 km
Eccentricity
0.00094
Inclination
54.9804°
RAAN
205.3498°
Arg. of periapsis
299.7283°
True anomaly
60.37058°
Mean anomaly
60.277°
Eccentric anomaly
60.32378°
Mean motion
3.62668 °/min
Orbital period
99.26 mins
BSTAR
0.00018777
Loading maneuver chart data...
Computing Atmospheric mass density...
Loading historical data...
Loading historical data...
Loading historical data...
Loading historical data...
Loading historical data...
Loading historical data...
Loading historical data...

Documentation

Showing up to 5 results
|